Location: Unspecified
(0.0000°N, 0.0000°E)
Time: 15:44:09
(UTC+02:00)

Resurs 01 Rocket - Visible Passes

Search period start: 28 May 2016 00:00
Search period end: 07 June 2016 00:00
Orbit: 635 x 644 km, 98.2° (Epoch: 27 May)

Date Brightness Start Highest point End Pass type
(mag) Time Alt. Az. Time Alt. Az. Time Alt. Az.
28 May 1.9 20:54:29 13° SSE 20:58:19 48° ENE 21:02:35 10° N visible
29 May 1.7 21:18:09 16° S 21:21:38 78° WSW 21:26:04 10° NNW visible
30 May 3.0 21:41:48 15° SSW 21:44:57 35° WSW 21:49:00 10° NW visible
31 May 3.0 20:28:45 10° SE 20:32:03 21° ENE 20:35:21 10° NNE visible
31 May 4.2 22:05:26 10° SW 22:08:15 17° WSW 22:11:10 10° WNW visible
01 Jun 2.0 20:51:30 12° SSE 20:55:22 42° ENE 20:59:34 10° N visible
02 Jun 1.6 21:15:09 16° S 21:18:41 87° WSW 21:23:08 10° NNW visible
03 Jun 2.8 21:38:48 16° SSW 21:42:00 40° WSW 21:46:09 10° NNW visible
04 Jun 3.1 20:26:02 10° ESE 20:29:07 18° ENE 20:32:11 10° NE visible
04 Jun 4.0 22:02:26 11° SW 22:05:18 19° WSW 22:08:28 10° WNW visible
05 Jun 2.2 20:48:29 11° SE 20:52:25 38° ENE 20:56:32 10° N visible
06 Jun 1.5 21:12:08 16° SSE 21:15:45 84° ENE 21:20:10 10° N visible
